{"data":{"norad_id":52000,"intl_designator":"2022-025AW","name":"STARLINK-3653","alt_names":[],"object_type":"PAYLOAD","status":"ACTIVE","operator":null,"country":"US","launch_date":"2022-03-09","launch_site_code":"AFETR","launch_vehicle":null,"mission":null,"orbit_class":"UNKNOWN","rcs_meters":null,"size_class":null,"mass_kg":null,"dimensions":null,"purposes":["comms"],"wikipedia_slug":null,"has_3d_model":false,"image_url":null,"decayed_at":null,"tle_current":{"epoch":"2026-09-19T12:54:45.795456Z","epoch_age_seconds":139309,"freshness":"FRESH","line1":"1 52000U 22025AW  26262.53803004 -.00000268  00000+0  32084-5 0  9997","line2":"2 52000  53.1597 218.0172 0001126 100.7543 259.3587 15.35401201250334","mean_motion":15.35401201,"eccentricity":0.0001126,"inclination_deg":53.1597,"raan_deg":218.0172,"arg_perigee_deg":100.7543,"mean_anomaly_deg":259.3587,"bstar":3.2084e-6,"rev_number":25033,"period_min":93.786562043988,"perigee_km":458.95913327201,"apogee_km":460.49902071255,"semimajor_km":6837.8660769923,"source":"CELESTRAK","updated_at":"2026-09-20T09:00:39.983224Z"}}}